This is the latest recevied weather packets stored in our database for station/object N5SOR-1. If no packets are shown the sender has not sent any weather packets the latest 10 day(s).
| Time | Temp. | Humidity | Pressure | Rain* | Wind** | Luminosity | Snow |
|---|---|---|---|---|---|---|---|
| 1777190728 | 21.67° C | 53% | 1005.4 hPa | 0 mm | - | 0 W/m² | - |
| 1777190068 | 21.67° C | 54% | 1005.5 hPa | 0 mm | - | 0 W/m² | - |
| 1777189407 | 21.11° C | 55% | 1005.4 hPa | 0 mm | - | 0 W/m² | - |
| 1777188746 | 21.67° C | 55% | 1005.5 hPa | 0 mm | - | 0 W/m² | - |
| 1777188118 | 22.22° C | 56% | 1005.5 hPa | 0 mm | - | 0 W/m² | - |
| 1777188086 | 22.22° C | 56% | 1005.5 hPa | 0 mm | - | 0 W/m² | - |
| 1777187425 | 22.22° C | 56% | 1005.5 hPa | 0 mm | - | 0 W/m² | - |
| 1777186765 | 22.22° C | 55% | 1005.6 hPa | 0 mm | - | 0 W/m² | - |
| 1777186104 | 22.22° C | 53% | 1005.7 hPa | 0 mm | - | 0 W/m² | - |
| 1777185443 | 22.78° C | 52% | 1005.7 hPa | 0 mm | - | 0 W/m² | - |
| 1777184783 | 22.78° C | 50% | 1005.7 hPa | 0 mm | - | 0 W/m² | - |
| 1777184122 | 22.78° C | 47% | 1005.9 hPa | 0 mm | - | 0 W/m² | - |
| 1777183462 | 22.78° C | 45% | 1006 hPa | 0 mm | - | 0 W/m² | - |
| 1777182801 | 23.33° C | 43% | 1006.2 hPa | 0 mm | - | 0 W/m² | - |
| 1777182140 | 23.33° C | 40% | 1006 hPa | 0 mm | - | 0 W/m² | - |
| 1777181480 | 23.89° C | 37% | 1006.1 hPa | 0 mm | - | 0 W/m² | - |
| 1777180819 | 23.89° C | 23% | 1006.1 hPa | 0 mm | - | 0 W/m² | - |
| 1777180158 | 23.33° C | 15% | 1006.2 hPa | 0 mm | - | 0 W/m² | - |
| 1777178837 | 25.56° C | 11% | 1006.1 hPa | 0 mm | - | 0 W/m² | - |
| 1777178177 | 26.11° C | 11% | 1006.2 hPa | 0 mm | - | 0 W/m² | - |
| 1777177516 | 25.56° C | 11% | 1006.2 hPa | 0 mm | - | 0 W/m² | - |
| 1777176855 | 25.56° C | 11% | 1006.2 hPa | 0 mm | - | 0 W/m² | - |
| 1777176195 | 25.56° C | 11% | 1006.2 hPa | 0 mm | - | 0 W/m² | - |
| 1777175534 | 25.56° C | 11% | 1006.1 hPa | 0 mm | - | 0 W/m² | - |
| 1777174873 | 26.11° C | 11% | 1005.9 hPa | 0 mm | - | 0 W/m² | - |
* Rain latest hour (hover to see other rain measurements)
** Current wind speed in m/s (hover to see current wind gust speed)